Date String (YYYY-MM-DD hh:mm:ss) UTC,Instrument flags,Ambient pressure (hPa),Sample flow (lpm),Bypass flow (lpm),Sample temperature (°C),Ambient temperature (°C),ASC tube jacket temperature (°C),LED temperature (°C),Box temperature (°C),Sample RH (%),Span deviation,Mass concentration (μg/m³),Mass concentration (μg/m³),Mass concentration (μg/m³)
DateTimeUTC,F1_M11,P_M11,Q1_M11,Q2_M11,T1_M11,T2_M11,T3_M11,T4_M11,T5_M11,U1_M11,ZSPAN_M11,X0_M11,X2_M11,X1_M11
2021-10-31 14:00:00,,0832.0,5.01,0.00,26.7,25.8,00.0,35.8,28.6,18.0,0000.0,0007.62,0003.27,0002.75
2021-10-31 14:01:00,,0832.0,5.00,0.00,26.7,25.8,00.0,35.8,28.6,17.9,0000.0,0006.88,0003.24,0002.72
2021-10-31 14:02:00,,0831.9,4.99,0.00,26.7,25.8,00.0,35.8,28.5,17.9,0000.0,0006.98,0003.27,0002.70
2021-10-31 14:03:00,,0832.0,5.00,0.00,26.7,25.8,00.0,35.8,28.5,17.9,0000.0,0007.69,0003.27,0002.70
2021-10-31 14:04:00,,0832.0,5.00,0.00,26.7,25.8,00.0,35.8,28.5,18.0,0000.0,0007.67,0003.25,0002.70
2021-10-31 14:05:00,,0832.0,5.00,0.00,26.7,25.8,00.0,35.7,28.5,18.0,0000.0,0007.63,0003.23,0002.69
2021-10-31 14:06:00,,0832.0,5.01,0.00,26.7,25.8,00.0,35.7,28.5,18.0,0000.0,0006.56,0003.21,0002.68
2021-10-31 14:07:00,,0832.0,5.01,0.00,26.7,25.8,00.0,35.7,28.5,18.0,0000.0,0006.90,0003.23,0002.66
2021-10-31 14:08:00,,0832.0,4.98,0.00,26.7,25.8,00.0,35.7,28.5,18.0,0000.0,0007.34,0003.25,0002.66
2021-10-31 14:09:00,,0832.0,5.00,0.00,26.7,25.8,00.0,35.7,28.5,17.8,0000.0,0007.39,0003.25,0002.65
2021-10-31 14:10:00,,0832.1,5.00,0.00,26.7,25.8,00.0,35.7,28.4,17.8,0000.0,0007.88,0003.24,0002.63
2021-10-31 14:11:00,,0832.1,5.01,0.00,26.6,25.7,00.0,35.7,28.4,17.9,0000.0,0008.31,0003.22,0002.61
2021-10-31 14:12:00,,0832.1,5.00,0.00,26.6,25.7,00.0,35.7,28.4,17.9,0000.0,0008.42,0003.24,0002.61
2021-10-31 14:13:00,,0832.1,5.01,0.00,26.6,25.7,00.0,35.7,28.4,18.0,0000.0,0008.42,0003.22,0002.60
2021-10-31 14:14:00,,0832.0,4.99,0.00,26.6,25.7,00.0,35.7,28.5,18.0,0000.0,0008.27,0003.23,0002.58
2021-10-31 14:15:00,,0832.1,5.00,0.00,26.6,25.8,00.0,35.7,28.5,18.1,0000.0,0008.63,0003.25,0002.57
2021-10-31 14:16:00,,0832.1,5.00,0.00,26.6,25.8,00.0,35.7,28.5,18.1,0000.0,0008.37,0003.26,0002.56
2021-10-31 14:17:00,,0832.2,5.00,0.00,26.6,25.8,00.0,35.7,28.5,18.1,0000.0,0008.41,0003.27,0002.55
2021-10-31 14:18:00,,0832.1,5.02,0.00,26.6,25.8,00.0,35.7,28.5,18.1,0000.0,0008.16,0003.23,0002.54
2021-10-31 14:19:00,,0832.1,4.99,0.00,26.6,25.8,00.0,35.7,28.5,18.1,0000.0,0007.95,0003.23,0002.52
2021-10-31 14:20:00,,0832.1,5.00,0.00,26.6,25.8,00.0,35.7,28.5,18.1,0000.0,0008.09,0003.29,0002.52
2021-10-31 14:21:00,,0832.1,5.01,0.00,26.6,25.8,00.0,35.7,28.5,18.1,0000.0,0007.65,0003.29,0002.52
2021-10-31 14:22:00,,0832.1,5.00,0.00,26.6,25.8,00.0,35.7,28.5,18.1,0000.0,0007.73,0003.29,0002.52
2021-10-31 14:23:00,,0832.1,4.98,0.00,26.6,25.8,00.0,35.7,28.5,18.1,0000.0,0007.92,0003.24,0002.51
2021-10-31 14:24:00,,0832.1,5.01,0.00,26.6,25.8,00.0,35.7,28.5,18.1,0000.0,0007.92,0003.25,0002.51
2021-10-31 14:25:00,,0832.1,5.01,0.00,26.7,25.8,00.0,35.7,28.5,18.1,0000.0,0007.71,0003.26,0002.51
2021-10-31 14:26:00,,0832.2,5.00,0.00,26.6,25.8,00.0,35.7,28.5,18.1,0000.0,0007.80,0003.26,0002.51
2021-10-31 14:27:00,,0832.1,5.00,0.00,26.7,25.8,00.0,35.7,28.5,18.1,0000.0,0008.12,0003.23,0002.50
2021-10-31 14:28:00,,0832.2,4.99,0.00,26.6,25.8,00.0,35.7,28.5,18.1,0000.0,0008.17,0003.24,0002.50
2021-10-31 14:29:00,,0832.2,5.01,0.00,26.6,25.8,00.0,35.7,28.5,17.9,0000.0,0008.21,0003.25,0002.49
2021-10-31 14:30:00,,0832.2,4.99,0.00,26.6,25.8,00.0,35.7,28.5,17.8,0000.0,0008.21,0003.25,0002.50
2021-10-31 14:31:00,,0832.2,5.00,0.00,26.6,25.7,00.0,35.7,28.5,17.8,0000.0,0008.00,0003.19,0002.51
2021-10-31 14:32:00,,0832.2,5.01,0.00,26.6,25.7,00.0,35.7,28.5,17.8,0000.0,0007.88,0003.17,0002.51
2021-10-31 14:33:00,,0832.2,4.99,0.00,26.6,25.7,00.0,35.7,28.4,17.7,0000.0,0007.33,0003.18,0002.52
2021-10-31 14:34:00,,0832.3,5.01,0.00,26.6,25.7,00.0,35.6,28.4,17.7,0000.0,0007.26,0003.21,0002.52
2021-10-31 14:35:00,,0832.3,5.00,0.00,26.6,25.7,00.0,35.6,28.4,17.7,0000.0,0007.19,0003.21,0002.53
2021-10-31 14:36:00,,0832.3,4.98,0.00,26.6,25.7,00.0,35.6,28.4,17.6,0000.0,0007.11,0003.20,0002.53
2021-10-31 14:37:00,,0832.3,5.01,0.00,26.6,25.7,00.0,35.6,28.4,17.6,0000.0,0006.37,0003.18,0002.51
2021-10-31 14:38:00,,0832.3,4.99,0.00,26.6,25.7,00.0,35.6,28.4,17.6,0000.0,0005.12,0003.17,0002.52
2021-10-31 14:39:00,,0832.3,5.01,0.00,26.6,25.7,00.0,35.6,28.4,17.6,0000.0,0005.20,0003.17,0002.51
2021-10-31 14:40:00,,0832.3,4.99,0.00,26.6,25.7,00.0,35.6,28.4,17.6,0000.0,0005.37,0003.18,0002.52
2021-10-31 14:41:00,,0832.3,5.00,0.00,26.6,25.7,00.0,35.6,28.4,17.7,0000.0,0005.42,0003.19,0002.53
2021-10-31 14:42:00,,0832.3,5.00,0.00,26.6,25.7,00.0,35.6,28.4,17.8,0000.0,0006.95,0003.21,0002.55
2021-10-31 14:43:00,,0832.3,5.01,0.00,26.6,25.7,00.0,35.6,28.4,17.9,0000.0,0007.39,0003.25,0002.56
2021-10-31 14:44:00,,0832.4,5.00,0.00,26.6,25.7,00.0,35.6,28.4,17.9,0000.0,0008.13,0003.24,0002.56
2021-10-31 14:45:00,,0832.4,5.01,0.00,26.6,25.7,00.0,35.6,28.4,17.9,0000.0,0008.10,0003.23,0002.57
2021-10-31 14:46:00,,0832.4,4.99,0.00,26.6,25.7,00.0,35.6,28.4,18.0,0000.0,0008.41,0003.20,0002.57
2021-10-31 14:47:00,,0832.4,5.01,0.00,26.6,25.7,00.0,35.6,28.4,17.8,0000.0,0009.09,0003.21,0002.56
2021-10-31 14:48:00,,0832.5,5.01,0.00,26.6,25.7,00.0,35.6,28.4,17.6,0000.0,0009.10,0003.19,0002.56
2021-10-31 14:49:00,,0832.5,4.99,0.00,26.6,25.7,00.0,35.6,28.4,17.5,0000.0,0009.15,0003.21,0002.54
2021-10-31 14:50:00,,0832.5,5.01,0.00,26.6,25.7,00.0,35.6,28.4,17.4,0000.0,0009.55,0003.20,0002.53
2021-10-31 14:51:00,,0832.5,5.00,0.00,26.5,25.7,00.0,35.6,28.4,17.2,0000.0,0009.85,0003.21,0002.52
2021-10-31 14:52:00,,0832.5,4.98,0.00,26.5,25.6,00.0,35.6,28.4,16.9,0000.0,0010.14,0003.17,0002.48
2021-10-31 14:53:00,,0832.6,5.00,0.00,26.5,25.6,00.0,35.6,28.4,16.8,0000.0,0009.83,0003.14,0002.42
2021-10-31 14:54:00,,0832.6,5.01,0.00,26.5,25.6,00.0,35.6,28.3,16.6,0000.0,0009.91,0003.05,0002.36
2021-10-31 14:55:00,,0832.6,4.99,0.00,26.5,25.6,00.0,35.6,28.3,16.5,0000.0,0009.42,0002.99,0002.31
2021-10-31 14:56:00,,0832.6,5.00,0.00,26.5,25.6,00.0,35.6,28.3,16.4,0000.0,0009.12,0002.93,0002.26
2021-10-31 14:57:00,,0832.6,5.00,0.00,26.5,25.6,00.0,35.6,28.3,16.4,0000.0,0008.69,0002.97,0002.20
2021-10-31 14:58:00,,0832.6,4.99,0.00,26.5,25.6,00.0,35.6,28.3,16.5,0000.0,0008.03,0002.88,0002.14
2021-10-31 14:59:00,,0832.6,5.00,0.00,26.5,25.6,00.0,35.6,28.3,16.6,0000.0,0007.79,0002.81,0002.10
